Regional Weather Roundup
Issued by NWS New Orleans/Baton Rouge, LA

Home | Current Version | Previous Version | Text Only | Print | Product List | Glossary On
Versions: 1 2 3 4 5 6 7 8 9 10 11 12 13 14 15 16 17 18 19 20 21 22 23 24 25 26 27 28 29 30 31 32 33 34 35 36 37 38 39 40 41 42 43 44 45 46 47 48 49 50
569
ASUS44 KLIX 311010
RWRLIX
NEW ORLEANS REGIONAL WEATHER ROUNDUP
NATIONAL WEATHER SERVICE NEW ORLEANS LA
500 AM CDT THU JUL 31 2014

NOTE: "FAIR" INDICATES FEW OR NO CLOUDS BELOW 12,000 FEET WITH NO
      SIGNIFICANT WEATHER AND/OR OBSTRUCTIONS TO VISIBILITY.
      SKY/WX - SKY CONDITION AND SIGNIFICANT WEATHER.
      TMP - AIR TEMPERATURE.     DP    - DEWPOINT TEMPERATURE.
      RH  - RELATIVE HUMIDITY.   PRES  - PRESSURE.
      HI  - HEAT INDEX.          WCI   - WIND CHILL INDEX.

*  THESE STATIONS ARE NOT NWS OR FAA STATIONS AND ARE NOT UNDER
   NWS QUALITY CONTROL.

LAZ038-040-048-061>063-065>067-069-311100-
SOUTHEAST LOUISIANA

CITY           SKY/WX    TMP DP  RH WIND       PRES   REMARKS
N.O. AUDUBON     N/A     76  66  70 MISG        N/A
N.O. INTL ARPT PTCLDY    72  64  76 CALM      29.99R
N.O. LAKEFRONT CLEAR     77  66  68 E3        30.00R
N.O. DOWNTOWN*   N/A     79  61  53 CALM      30.00R
SLIDELL        CLEAR     66  63  90 N5        29.99S
BATON ROUGE    MOCLDY    70  64  81 CALM      30.00R
BOOTHVILLE     CLEAR     75  66  73 CALM      29.99S
BELLE CHASSE   CLEAR     68  65  90 CALM      29.99R
BOGALUSA*        N/A     69  64  84 CALM      30.02S
GALLIANO*      NOT AVBL
NEW ROADS*       N/A     71  63  77 MISG      30.00R
GONZALES*        N/A     68  67  96 CALM      29.98S
HAMMOND*       PTCLDY    70  61  73 CALM      30.01S
HOUMA*         PTCLDY    68  64  87 CALM      29.98S
PORT FOURCHON* CLOUDY    81  64  57 SE6       29.99F

$$

MSZ070-080>082-311100-
SOUTHERN MISSISSIPPI

CITY           SKY/WX    TMP DP  RH WIND       PRES   REMARKS
MCCOMB         CLOUDY    71  60  68 E3        30.02S
GULFPORT       PTCLDY    73  61  65 N3        29.99S
BILOXI         MOCLDY    68  62  80 NE6       30.00R
PASCAGOULA     CLEAR     63  61  93 CALM      30.00S

$$

COASTAL OBSERVATIONS
LAKE AND NEARSHORE STATIONS

STATION/POSITION TIME  TEMP    WIND        PRES    WAVE
                       AIR SEA DIR/SP/G            HT/PER
                 (UTC) (F)     (DEG/KT/KT) (MB)    (FT/S)
PASCAGOULA       1000   69      10/  6/  8 1015.2
WAVELAND YACHT   1000   73      20/  6/  7 1015.1
GRAND ISLE       1000   80 86  120/  3/  6 1015.7
SOUTHWEST PASS   1000   79 85   70/  3/  3 1015.7
NEW CANAL        1000   76 83     CALM     1015.9
SHELL BEACH      1000   78 81  190/  3/  3 1015.2

OFFSHORE STATIONS

STATION/POSITION TIME  TEMP    WIND        PRES    WAVE
                       AIR SEA DIR/SP/G            HT/PER
                 (UTC) (F)     (DEG/KT/KT) (MB)    (FT/S)
64 S DAUPHIN ISL 0933   81 85  360/  4/  6 1015.2

$$




USA.gov is the U.S. government's official web portal to all federal, state and local government web resources and services.